YO6IKB-10 Weather Reports


time (UTC)temp
C
wind
direction
speed
KPH
gust
KPH
rain 1hr
cm
rain 24hr
cm
rain mn
cm
humidity
%
barometer
mb
20260508034134 13 202 0.0 3.2 0.00 0.05 0.00 80 1011.8
20260508033633 13 202 0.0 4.8 0.00 0.05 0.00 80 1011.7
20260508033133 13 202 3.2 4.8 0.00 0.05 0.00 80 1011.7
20260508032633 13 202 3.2 3.2 0.00 0.05 0.00 81 1011.6
20260508032132 13 202 1.6 4.8 0.00 0.05 0.00 81 1011.6
20260508031632 13 202 0.0 3.2 0.00 0.05 0.00 81 1011.7
20260508031132 13 202 0.0 1.6 0.00 0.05 0.00 81 1011.7
20260508030632 13 202 0.0 1.6 0.00 0.05 0.00 81 1011.7
20260508030131 13 202 0.0 3.2 0.00 0.05 0.00 81 1011.6
20260508025631 13 202 0.0 3.2 0.00 0.05 0.00 81 1011.6
20260508025131 13 202 0.0 6.4 0.00 0.05 0.00 81 1011.6
20260508024630 13 247 0.0 0.0 0.00 0.05 0.00 82 1011.6
20260508024130 13 247 0.0 0.0 0.00 0.05 0.00 81 1011.5
20260508023630 13 247 0.0 0.0 0.00 0.05 0.00 82 1011.5
20260508023130 13 247 0.0 0.0 0.00 0.05 0.00 82 1011.4
20260508022629 13 247 0.0 3.2 0.00 0.05 0.00 82 1011.5
20260508022129 13 292 0.0 3.2 0.00 0.05 0.00 82 1011.5
20260508021629 13 292 0.0 0.0 0.00 0.05 0.00 81 1011.6
20260508021128 13 292 0.0 0.0 0.00 0.05 0.00 81 1011.5
20260508020628 13 292 0.0 0.0 0.00 0.05 0.00 81 1011.6
20260508020128 13 292 0.0 0.0 0.05 0.05 0.00 81 1011.7
20260508015628 13 292 0.0 0.0 0.05 0.05 0.00 81 1011.8
20260508015127 13 292 0.0 0.0 0.05 0.05 0.00 81 1011.7
20260508014627 13 292 0.0 3.2 0.05 0.05 0.00 81 1011.8
20260508014127 13 292 0.0 0.0 0.05 0.05 0.00 81 1011.7
20260508013626 13 292 0.0 0.0 0.05 0.05 0.00 81 1011.8
20260508013126 13 292 0.0 0.0 0.05 0.05 0.00 80 1011.7
20260508012626 13 292 0.0 0.0 0.05 0.05 0.00 79 1011.7
20260508012125 13 292 0.0 1.6 0.05 0.05 0.00 79 1011.7
20260508011625 14 292 0.0 0.0 0.05 0.05 0.00 77 1011.7
20260508011125 14 292 0.0 0.0 0.05 0.05 0.00 77 1011.7
20260508010625 14 292 0.0 0.0 0.05 0.05 0.00 77 1011.8
20260508010124 14 292 0.0 0.0 0.00 0.00 0.00 77 1011.8
20260508005624 14 292 0.0 0.0 0.00 0.00 0.00 77 1011.9
20260508005124 14 292 0.0 0.0 0.00 0.00 0.00 77 1012.0
20260508004623 14 292 0.0 1.6 0.00 0.00 0.00 77 1011.8
20260508004123 14 292 0.0 0.0 0.00 0.00 0.00 77 1011.9
20260508003623 14 292 0.0 0.0 0.00 0.00 0.00 76 1011.8
20260508003123 14 292 0.0 3.2 0.00 0.00 0.00 75 1011.9
20260508002622 14 292 0.0 1.6 0.00 0.00 0.00 75 1011.9
20260508002122 15 292 0.0 3.2 0.00 0.00 0.00 75 1011.9
20260508001622 15 315 0.0 6.4 0.00 0.00 0.00 73 1011.8
20260508001121 15 292 0.0 1.6 0.00 0.00 0.00 72 1011.8
20260508000621 15 292 0.0 0.0 0.00 0.00 0.00 72 1011.8
20260508000121 15 292 0.0 6.4 0.00 0.00 0.00 71 1011.7
20260507235621 15 292 0.0 4.8 0.00 0.00 0.00 70 1011.9
20260507235120 15 292 3.2 4.8 0.00 0.00 0.00 69 1011.7
20260507234620 16 292 1.6 4.8 0.00 0.00 0.00 68 1011.8
20260507234120 16 292 1.6 4.8 0.00 0.00 0.00 67 1011.8
20260507233619 16 292 3.2 8.0 0.00 0.00 0.00 66 1011.8
20260507233119 16 292 3.2 6.4 0.00 0.00 0.00 65 1011.8
20260507232619 16 292 3.2 12.9 0.00 0.00 0.00 64 1011.8
20260507232118 16 247 11.3 11.3 0.00 0.00 0.00 63 1011.8
20260507231618 17 315 3.2 14.5 0.00 0.00 0.00 62 1011.9
20260507231118 17 292 6.4 9.7 0.00 0.00 0.00 61 1011.8
20260507230618 17 292 6.4 8.0 0.00 0.00 0.00 60 1011.7
20260507230117 17 292 6.4 9.7 0.00 0.00 0.00 60 1011.7
20260507225617 17 292 3.2 6.4 0.00 0.00 0.00 60 1011.6
20260507225117 17 292 0.0 6.4 0.00 0.00 0.00 60 1011.6
20260507224616 17 247 4.8 8.0 0.00 0.00 0.00 60 1011.5
20260507224116 17 292 4.8 9.7 0.00 0.00 0.00 60 1011.6
20260507223616 17 292 3.2 8.0 0.00 0.00 0.00 60 1011.6
20260507223116 17 247 6.4 12.9 0.00 0.00 0.00 59 1011.6
20260507222615 17 247 8.0 9.7 0.00 0.00 0.00 60 1011.7
20260507222115 17 202 1.6 14.5 0.00 0.00 0.00 60 1011.7
20260507221615 17 247 9.7 29.0 0.00 0.00 0.00 60 1011.7
20260507221114 17 225 20.9 27.4 0.00 0.00 0.00 60 1011.7
20260507220614 17 202 8.0 17.7 0.00 0.00 0.00 60 1011.7
20260507220114 18 202 9.7 16.1 0.00 0.00 0.00 60 1011.6
20260507215613 18 225 9.7 17.7 0.00 0.00 0.00 61 1011.6
20260507215113 18 225 14.5 20.9 0.00 0.00 0.00 61 1011.6
20260507214613 18 247 12.9 14.5 0.00 0.00 0.00 60 1011.6
20260507214113 18 202 11.3 16.1 0.00 0.00 0.00 60 1011.5
20260507213612 18 202 0.0 19.3 0.00 0.00 0.00 60 1011.5
20260507213112 18 225 11.3 22.5 0.00 0.00 0.00 59 1011.5
20260507212612 18 202 8.0 12.9 0.00 0.00 0.00 59 1011.6
20260507212111 18 202 0.0 6.4 0.00 0.00 0.00 59 1011.5
20260507211611 18 225 0.0 9.7 0.00 0.00 0.00 59 1011.6
20260507211111 18 202 6.4 8.0 0.00 0.00 0.00 59 1011.6
20260507210611 18 202 3.2 6.4 0.00 0.00 0.00 58 1011.4
20260507210110 18 225 0.0 6.4 0.00 0.00 0.00 59 1011.4
20260507205610 18 225 3.2 6.4 0.00 0.00 0.00 58 1011.3
20260507205110 18 225 0.0 9.7 0.00 0.00 0.00 58 1011.3
20260507204609 18 225 6.4 9.7 0.00 0.00 0.00 58 1011.3
20260507204109 18 225 3.2 9.7 0.00 0.00 0.00 57 1011.3
20260507203609 18 225 0.0 6.4 0.00 0.00 0.00 57 1011.2
20260507203108 18 225 3.2 3.2 0.00 0.00 0.00 56 1011.2
20260507202608 18 225 0.0 3.2 0.00 0.00 0.00 56 1011.2
20260507202108 18 225 3.2 3.2 0.00 0.00 0.00 56 1011.2
20260507201608 18 225 0.0 0.0 0.00 0.00 0.00 56 1011.3
20260507201107 18 225 0.0 1.6 0.00 0.00 0.00 56 1011.2
20260507200607 18 225 1.6 1.6 0.00 0.00 0.00 56 1011.2
20260507200107 18 225 0.0 0.0 0.00 0.00 0.00 56 1011.1
20260507195606 18 225 0.0 0.0 0.00 0.00 0.00 55 1011.1
20260507195106 18 225 0.0 1.6 0.00 0.00 0.00 55 1011.1
20260507194606 18 225 0.0 0.0 0.00 0.00 0.00 55 1011.2
20260507194106 18 225 0.0 1.6 0.00 0.00 0.00 56 1011.2
20260507193605 18 225 1.6 1.6 0.00 0.00 0.00 56 1011.2
20260507193105 18 225 0.0 4.8 0.00 0.00 0.00 56 1011.2
20260507192605 18 225 0.0 1.6 0.00 0.00 0.00 56 1011.2
20260507192104 19 225 0.0 1.6 0.00 0.00 0.00 56 1011.2
20260507191604 19 225 0.0 6.4 0.00 0.00 0.00 57 1011.0
20260507191104 19 225 0.0 1.6 0.00 0.00 0.00 56 1010.9
20260507190608 19 225 1.6 6.4 0.00 0.00 0.00 57 1011.1
20260507185603 19 225 0.0 0.0 0.00 0.00 0.00 56 1010.9
20260507185103 19 225 0.0 0.0 0.00 0.00 0.00 56 1010.9
20260507184602 20 225 0.0 3.2 0.00 0.00 0.00 55 1010.8
20260507184102 20 225 0.0 1.6 0.00 0.00 0.00 54 1010.8
20260507183602 20 225 0.0 0.0 0.00 0.00 0.00 54 1010.7
20260507183101 20 225 0.0 1.6 0.00 0.00 0.00 53 1010.6
20260507182601 20 225 0.0 6.4 0.00 0.00 0.00 52 1010.5
20260507182101 20 225 1.6 3.2 0.00 0.00 0.00 51 1010.3
20260507181601 20 225 0.0 4.8 0.00 0.00 0.00 51 1010.2
20260507181100 20 225 0.0 12.9 0.00 0.00 0.00 51 1010.1
20260507180600 20 225 11.3 11.3 0.00 0.00 0.00 51 1010.1
20260507180100 20 202 0.0 11.3 0.00 0.00 0.00 51 1010.0
20260507175559 20 180 3.2 11.3 0.00 0.00 0.00 51 1009.9
20260507175059 20 247 4.8 12.9 0.00 0.00 0.00 51 1009.9
20260507174559 20 247 9.7 17.7 0.00 0.00 0.00 50 1009.6
20260507174059 20 247 3.2 14.5 0.00 0.00 0.00 50 1009.6
20260507173558 21 292 6.4 14.5 0.00 0.00 0.00 50 1009.5
20260507173058 21 202 4.8 12.9 0.00 0.00 0.00 50 1009.6
20260507172558 21 225 4.8 16.1 0.00 0.00 0.00 49 1009.5
20260507172057 21 225 12.9 16.1 0.00 0.00 0.00 49 1009.6
20260507171557 21 202 8.0 12.9 0.00 0.00 0.00 49 1009.6
20260507171057 21 225 9.7 14.5 0.00 0.00 0.00 48 1009.5
20260507170557 21 247 14.5 14.5 0.00 0.00 0.00 48 1009.5
20260507170056 21 247 6.4 19.3 0.00 0.00 0.00 48 1009.5
20260507165556 22 225 16.1 22.5 0.00 0.00 0.00 47 1009.5
20260507165056 22 247 11.3 27.4 0.00 0.00 0.00 47 1009.5
20260507164555 22 292 9.7 24.1 0.00 0.00 0.00 47 1009.5
20260507164055 22 247 22.5 32.2 0.00 0.00 0.00 46 1009.5
20260507163555 23 202 20.9 30.6 0.00 0.00 0.00 46 1009.6
20260507163054 23 292 1.6 25.7 0.00 0.00 0.00 45 1009.6
20260507162554 23 225 16.1 32.2 0.00 0.00 0.00 45 1009.6
20260507162054 23 202 11.3 22.5 0.00 0.00 0.00 45 1009.6
20260507161554 23 247 12.9 24.1 0.00 0.00 0.00 44 1009.5
20260507161053 23 225 17.7 20.9 0.00 0.00 0.00 44 1009.6
20260507160553 23 225 11.3 25.7 0.00 0.00 0.00 44 1009.7
20260507160053 23 247 4.8 27.4 0.00 0.00 0.00 44 1009.6
20260507155552 23 225 22.5 29.0 0.00 0.00 0.00 44 1009.6
20260507155052 23 247 12.9 30.6 0.00 0.00 0.00 44 1009.6
20260507154552 23 180 20.9 30.6 0.00 0.00 0.00 43 1009.6
20260507154051 24 225 16.1 30.6 0.00 0.00 0.00 43 1009.6
20260507153551 24 225 14.5 30.6 0.00 0.00 0.00 42 1009.7
20260507153051 24 202 12.9 27.4 0.00 0.00 0.00 42 1009.7
20260507152551 25 247 19.3 30.6 0.00 0.00 0.00 41 1009.6
20260507152050 25 180 4.8 24.1 0.00 0.00 0.00 41 1009.6
20260507151550 25 225 14.5 32.2 0.00 0.00 0.00 41 1009.6
20260507151050 26 202 8.0 11.3 0.00 0.00 0.00 41 1009.6
20260507150549 26 45 0.0 3.2 0.00 0.00 0.00 41 1009.6
20260507150049 26 225 0.0 11.3 0.00 0.00 0.00 41 1009.6
20260507145549 26 180 4.8 16.1 0.00 0.00 0.00 41 1009.6
20260507145049 26 112 0.0 12.9 0.00 0.00 0.00 40 1009.6
20260507144548 26 157 4.8 20.9 0.00 0.00 0.00 39 1009.6
20260507144048 26 67 4.8 17.7 0.00 0.00 0.00 39 1009.6
20260507143548 26 157 1.6 11.3 0.00 0.00 0.00 39 1009.6
20260507143047 26 157 4.8 22.5 0.00 0.00 0.00 38 1009.6
20260507142547 26 225 11.3 30.6 0.00 0.00 0.00 38 1009.6
20260507142047 26 225 6.4 22.5 0.00 0.00 0.00 38 1009.5
20260507141547 26 202 3.2 27.4 0.00 0.00 0.00 38 1009.6
20260507141046 26 225 9.7 37.0 0.00 0.00 0.00 37 1009.6
20260507140546 26 247 11.3 33.8 0.00 0.00 0.00 37 1009.6
20260507140046 26 225 12.9 38.6 0.00 0.00 0.00 37 1009.6
20260507135545 26 202 24.1 38.6 0.00 0.00 0.00 37 1009.6
20260507135045 26 202 11.3 12.9 0.00 0.00 0.00 40 1009.6
20260507134545 26 157 0.0 9.7 0.00 0.00 0.00 40 1009.6
20260507134044 26 180 3.2 19.3 0.00 0.00 0.00 40 1009.6
20260507133544 26 157 6.4 11.3 0.00 0.00 0.00 40 1009.6
20260507133044 26 157 4.8 19.3 0.00 0.00 0.00 39 1009.5
20260507132543 26 67 4.8 17.7 0.00 0.00 0.00 39 1009.5
20260507132043 27 45 6.4 24.1 0.00 0.00 0.00 38 1009.5
20260507131543 27 157 4.8 22.5 0.00 0.00 0.00 37 1009.5
20260507131043 27 90 1.6 14.5 0.00 0.00 0.00 36 1009.5
20260507130542 27 157 4.8 9.7 0.00 0.00 0.00 36 1009.5
20260507130042 27 135 6.4 11.3 0.00 0.00 0.00 35 1009.5
20260507125542 27 157 3.2 20.9 0.00 0.00 0.00 35 1009.5
20260507125041 27 157 6.4 16.1 0.00 0.00 0.00 35 1009.5
20260507124541 27 135 0.0 27.4 0.00 0.00 0.00 35 1009.5
20260507124041 27 225 12.9 32.2 0.00 0.00 0.00 35 1009.4
20260507123541 28 202 4.8 22.5 0.00 0.00 0.00 35 1009.5
20260507123040 28 225 16.1 24.1 0.00 0.00 0.00 35 1009.5
20260507122540 28 202 0.0 27.4 0.00 0.00 0.00 34 1009.4
20260507122040 28 225 6.4 32.2 0.00 0.00 0.00 34 1009.5
20260507121539 28 202 16.1 37.0 0.00 0.00 0.00 33 1009.4
20260507121039 29 292 11.3 19.3 0.00 0.00 0.00 33 1009.5
20260507120539 29 247 0.0 17.7 0.00 0.00 0.00 33 1009.5
20260507120039 28 157 4.8 16.1 0.00 0.00 0.00 33 1009.4
20260507115538 28 180 0.0 14.5 0.00 0.00 0.00 33 1009.4
20260507115038 28 90 0.0 12.9 0.00 0.00 0.00 32 1009.4
20260507114538 28 45 0.0 16.1 0.00 0.00 0.00 30 1009.4
20260507114037 29 67 4.8 12.9 0.00 0.00 0.00 32 1009.4
20260507113537 28 135 12.9 32.2 0.00 0.00 0.00 33 1009.4
20260507113037 28 45 0.0 8.0 0.00 0.00 0.00 33 1009.4
20260507112537 29 67 3.2 9.7 0.00 0.00 0.00 33 1009.4
20260507112036 28 292 0.0 3.2 0.00 0.00 0.00 34 1009.4
20260507111536 28 292 0.0 9.7 0.00 0.00 0.00 35 1009.4
20260507111036 27 292 9.7 17.7 0.00 0.00 0.00 35 1009.3
20260507110535 27 315 0.0 4.8 0.00 0.00 0.00 35 1009.3
20260507110035 26 315 3.2 9.7 0.00 0.00 0.00 35 1009.3
20260507105535 26 337 9.7 9.7 0.00 0.00 0.00 34 1009.3
20260507105034 27 22 3.2 8.0 0.00 0.00 0.00 34 1009.3
20260507104534 27 67 0.0 9.7 0.00 0.00 0.00 33 1009.4
20260507104034 28 22 3.2 9.7 0.00 0.00 0.00 32 1009.4
20260507103534 28 337 0.0 4.8 0.00 0.00 0.00 35 1009.6
20260507103033 27 292 0.0 4.8 0.00 0.00 0.00 36 1009.7
20260507102533 27 292 0.0 6.4 0.00 0.00 0.00 36 1009.9
20260507102033 25 180 0.0 9.7 0.00 0.00 0.00 36 1010.1
20260507101532 25 0 3.2 9.7 0.00 0.00 0.00 35 1010.4
20260507101032 25 22 4.8 6.4 0.00 0.00 0.00 36 1010.4
20260507100532 25 90 4.8 12.9 0.00 0.00 0.00 35 1010.4
20260507100031 25 22 0.0 6.4 0.00 0.00 0.00 36 1010.5
20260507095531 25 22 6.4 11.3 0.00 0.00 0.00 35 1010.6
20260507095031 25 22 0.0 4.8 0.00 0.00 0.00 37 1010.5
20260507094531 25 22 3.2 6.4 0.00 0.00 0.00 36 1010.7
20260507094030 25 22 3.2 8.0 0.00 0.00 0.00 35 1010.7
20260507093530 25 0 0.0 6.4 0.00 0.00 0.00 37 1010.7
20260507093030 25 22 0.0 4.8 0.00 0.00 0.00 38 1010.8
20260507092529 24 67 4.8 8.0 0.00 0.00 0.00 39 1010.9
20260507092029 24 45 1.6 6.4 0.00 0.00 0.00 39 1011.1
20260507091529 24 45 4.8 4.8 0.00 0.00 0.00 39 1011.2
20260507091029 23 0 4.8 4.8 0.00 0.00 0.00 41 1011.1
20260507090528 23 22 0.0 6.4 0.00 0.00 0.00 43 1011.2
20260507090028 23 22 0.0 3.2 0.00 0.00 0.00 45 1011.1
20260507085528 22 22 3.2 4.8 0.00 0.00 0.00 46 1011.2
20260507085027 22 67 0.0 4.8 0.00 0.00 0.00 49 1011.2
20260507084529 22 45 1.6 9.7 0.00 0.00 0.00 50 1011.4
20260507084027 21 67 0.0 6.4 0.00 0.00 0.00 52 1011.4
20260507083527 21 67 3.2 9.7 0.00 0.00 0.00 52 1011.4
20260507083026 21 45 4.8 9.7 0.00 0.00 0.00 54 1011.3
20260507082526 20 90 1.6 9.7 0.00 0.00 0.00 54 1011.4
20260507082026 20 22 6.4 11.3 0.00 0.00 0.00 55 1011.5
20260507081525 20 67 3.2 9.7 0.00 0.00 0.00 55 1011.4
20260507081025 20 67 4.8 12.9 0.00 0.00 0.00 55 1011.5
20260507080525 20 45 6.4 12.9 0.00 0.00 0.00 55 1011.5
20260507080024 20 67 6.4 12.9 0.00 0.00 0.00 55 1011.5
20260507075524 20 67 8.0 14.5 0.00 0.00 0.00 54 1011.6
20260507075024 20 67 14.5 14.5 0.00 0.00 0.00 55 1011.6
20260507074524 20 67 12.9 14.5 0.00 0.00 0.00 55 1011.7
20260507074023 19 67 6.4 11.3 0.00 0.00 0.00 56 1011.7
20260507073523 19 45 9.7 12.9 0.00 0.00 0.00 57 1011.7
20260507073023 18 22 8.0 9.7 0.00 0.00 0.00 58 1011.8
20260507072522 18 22 6.4 11.3 0.00 0.00 0.00 59 1011.9
20260507072022 18 45 8.0 11.3 0.00 0.00 0.00 58 1011.8
20260507071522 18 22 9.7 9.7 0.00 0.00 0.00 57 1011.9
20260507071022 18 67 8.0 9.7 0.00 0.00 0.00 57 1011.9
20260507070521 18 45 6.4 9.7 0.00 0.00 0.00 57 1012.0
20260507070021 18 67 8.0 8.0 0.00 0.00 0.00 57 1012.0
20260507065521 18 67 4.8 8.0 0.00 0.00 0.00 56 1011.9
20260507065020 18 45 0.0 9.7 0.00 0.00 0.00 56 1011.9
20260507064520 18 45 3.2 9.7 0.00 0.00 0.00 58 1011.9
20260507064020 18 22 6.4 11.3 0.00 0.00 0.00 57 1011.9
20260507063520 18 67 9.7 9.7 0.00 0.00 0.00 58 1012.0
20260507063019 18 22 3.2 9.7 0.00 0.00 0.00 58 1011.9
20260507062519 18 67 3.2 9.7 0.00 0.00 0.00 58 1012.0
20260507062019 18 67 4.8 9.7 0.00 0.00 0.00 58 1012.0
20260507061518 18 45 6.4 9.7 0.00 0.00 0.00 57 1012.1
20260507061018 18 45 1.6 8.0 0.00 0.00 0.00 57 1012.1
20260507060518 18 45 6.4 8.0 0.00 0.00 0.00 57 1012.1
20260507060017 18 45 6.4 8.0 0.00 0.00 0.00 57 1012.2
20260507055517 18 22 6.4 6.4 0.00 0.00 0.00 58 1012.2
20260507055017 18 22 0.0 3.2 0.00 0.00 0.00 59 1012.2
20260507054517 18 45 0.0 3.2 0.00 0.00 0.00 61 1012.2
20260507054016 17 45 0.0 0.0 0.00 0.00 0.00 63 1012.2
20260507053516 16 45 0.0 6.4 0.00 0.00 0.00 63 1012.2
20260507053016 16 67 0.0 3.2 0.00 0.00 0.00 63 1012.2
20260507052515 15 67 3.2 8.0 0.00 0.00 0.00 64 1012.2
20260507052015 15 67 3.2 6.4 0.00 0.00 0.00 65 1012.1
20260507051515 15 22 3.2 6.4 0.00 0.00 0.00 66 1012.1
20260507051015 14 67 3.2 6.4 0.00 0.00 0.00 67 1012.2
20260507050514 14 67 3.2 6.4 0.00 0.00 0.00 68 1012.2
20260507050014 13 67 3.2 3.2 0.00 0.00 0.00 69 1012.3
20260507045514 13 67 0.0 4.8 0.00 0.00 0.00 70 1012.3
20260507045013 12 67 4.8 4.8 0.00 0.00 0.00 70 1012.3
20260507044513 12 67 4.8 9.7 0.00 0.00 0.00 70 1012.2
20260507044013 12 45 6.4 11.3 0.00 0.00 0.00 70 1012.2
20260507043512 12 67 3.2 8.0 0.00 0.00 0.00 71 1012.3
20260507043012 12 45 6.4 6.4 0.00 0.00 0.00 71 1012.2
20260507042512 12 45 1.6 8.0 0.00 0.00 0.00 70 1012.2
20260507042012 12 157 1.6 3.2 0.00 0.00 0.00 69 1012.3
20260507041511 12 180 0.0 0.0 0.00 0.00 0.00 68 1012.2
20260507041011 12 180 0.0 0.0 0.00 0.00 0.00 68 1012.2
20260507040511 12 180 0.0 0.0 0.00 0.00 0.00 68 1012.2
20260507040011 12 180 0.0 1.6 0.00 0.00 0.00 68 1012.2
20260507035510 12 180 0.0 0.0 0.00 0.00 0.00 69 1012.1
20260507035010 12 180 0.0 0.0 0.00 0.00 0.00 69 1012.0